This demonstration page uses our WeatherBlox Daily Observations layout. Learn more.

36.17497, -115.13722

Hourly Observations for July 20, 2015

Temp ( °F °C ) Dew Point ( °F °C ) Humidity (%) Winds ( mph kmh ) Pressure ( in mb ) Visibility ( mi km ) Precip ( " mm )
12:53 am 00:53 Mostly Cloudy with Light Rain 82 27.8 58 14.4 44 44 NW 25 41 30.01 1016 10 16.0934 0 0.0254
1:53 am 01:53 Partly Cloudy 80 26.7 57 13.9 45 45 NNW 20 31 30.01 1016 10 16.0934 0 0.0254
2:53 am 02:53 Cloudy 77 25 59 15 54 54 NNW 24 39 30.03 1017 10 16.0934 0 0.0254
3:53 am 03:53 Cloudy with Rain 73 22.8 63 17.2 71 71 NNW 17 28 30.06 1018 8 12.87472 0 0.0254
4:53 am 04:53 Cloudy 72 22.2 63 17.2 73 73 N 10 17 30.06 1018 10 16.0934 0 0
5:53 am 05:53 Mostly Cloudy 72 22.2 64 17.8 76 76 NNW 12 19 30.05 1018 10 16.0934 0 0
6:53 am 06:53 Cloudy 73 22.8 62 16.7 69 69 NNW 9 15 30.07 1018 10 16.0934 0 0
7:53 am 07:53 Cloudy 74 23.3 62 16.7 67 67 N 15 24 30.09 1019 10 16.0934 0 0
8:53 am 08:53 Cloudy 72 22.2 63 17.2 73 73 N 12 19 30.11 1020 10 16.0934 0 0.0254
9:53 am 09:53 Cloudy 74 23.3 62 16.7 67 67 NNW 12 19 30.09 1019 10 16.0934 0 0
10:53 am 10:53 Mostly Sunny 78 25.6 61 16.1 56 56 N 12 19 30.09 1019 10 16.0934 0 0
11:53 am 11:53 Sunny 79 26.1 61 16.1 54 54 NNW 8 13 30.09 1019 10 16.0934 0 0
12:53 pm 12:53 Cloudy 82 27.8 59 15 46 46 NE 8 13 30.07 1018 10 16.0934 0 0
1:53 pm 13:53 Cloudy 82 27.8 57 13.9 42 42 N 5 7 30.05 1018 10 16.0934 0 0
2:53 pm 14:53 Cloudy 83 28.3 59 15 44 44 NW 8 13 30.03 1017 10 16.0934 0 0
3:53 pm 15:53 Sunny 84 28.9 58 14.4 41 41 VRB 7 11 30.01 1016 10 16.0934 0 0
4:53 pm 16:53 Cloudy 85 29.4 58 14.4 40 40 NW 8 13 29.99 1016 10 16.0934 0 0
5:53 pm 17:53 Mostly Cloudy 84 28.9 56 13.3 38 38 NW 7 11 29.97 1015 10 16.0934 0 0
6:53 pm 18:53 Mostly Cloudy 85 29.4 56 13.3 37 37 NNW 5 7 29.96 1015 10 16.0934 0 0
7:53 pm 19:53 Partly Cloudy 84 28.9 56 13.3 38 38 NNW 5 7 29.95 1014 10 16.0934 0 0
8:53 pm 20:53 Clear 83 28.3 57 13.9 41 41 N 6 9 29.95 1014 10 16.0934 0 0
9:53 pm 21:53 Mostly Clear 81 27.2 58 14.4 45 45 NNE 6 9 29.96 1015 10 16.0934 0 0
10:53 pm 22:53 Clear 81 27.2 58 14.4 45 45 Calm 29.96 1015 10 16.0934 0 0
11:53 pm 23:53 Clear 80 26.7 58 14.4 47 47 NNW 3 6 29.96 1015 10 16.0934 0 0

Powered by AerisWeather